This is the latest recevied weather packets stored in our database for station/object XE1E-15. If no packets are shown the sender has not sent any weather packets the latest 10 day(s).
| Time | Temp. | Humidity | Pressure | Rain* | Wind** | Luminosity | Snow |
|---|---|---|---|---|---|---|---|
| 1777516059 | 26.67° C | 23% | 1021.9 hPa | - | - | - | - |
| 1777515099 | 26.11° C | 21% | 1021.6 hPa | - | - | - | - |
| 1777514138 | 26.67° C | 27% | 1021.5 hPa | - | - | - | - |
| 1777513178 | 27.22° C | 25% | 1021.2 hPa | - | - | - | - |
| 1777511741 | 27.22° C | 18% | 1020.7 hPa | - | - | - | - |
| 1777510781 | 27.78° C | 16% | 1020.6 hPa | - | - | - | - |
| 1777509821 | 28.33° C | 16% | 1020.4 hPa | - | - | - | - |
| 1777506940 | 29.44° C | 15% | 1019.6 hPa | - | - | - | - |
| 1777500219 | 32.22° C | 13% | 1019.5 hPa | - | - | - | - |
| 1777499259 | 32.78° C | 13% | 1019.5 hPa | - | - | - | - |
| 1777498299 | 33.33° C | 13% | 1019.7 hPa | - | - | - | - |
| 1777495424 | 32.22° C | 15% | 1020.7 hPa | - | - | - | - |
| 1777487258 | 32.78° C | 15% | 1023.2 hPa | - | - | - | - |
| 1777486298 | 32.78° C | 16% | 1023.4 hPa | - | - | - | - |
| 1777485338 | 31.11° C | 16% | 1023.7 hPa | - | - | - | - |
| 1777484377 | 33.89° C | 16% | 1024 hPa | - | - | - | - |
| 1777483417 | 32.22° C | 18% | 1024.1 hPa | - | - | - | - |
| 1777482457 | 32.78° C | 19% | 1024.2 hPa | - | - | - | - |
| 1777479577 | 31.11° C | 24% | 1024.6 hPa | - | - | - | - |
| 1777478617 | 30° C | 26% | 1024.9 hPa | - | - | - | - |
| 1777477657 | 28.89° C | 26% | 1024.8 hPa | - | - | - | - |
| 1777473816 | 25° C | 31% | 1024.9 hPa | - | - | - | - |
| 1777472856 | 25.56° C | 32% | 1024.9 hPa | - | - | - | - |
| 1777469498 | 23.89° C | 35% | 1024.6 hPa | - | - | - | - |
| 1777466654 | 22.78° C | 37% | 1024.1 hPa | - | - | - | - |
* Rain since midnight (hover to see other rain measurements)
** Current wind speed in m/s (hover to see current wind gust speed)